Theta_e
338 344 349 349 347 349 349 348 347 348 347 347 347 346 345 344 342 345 344 342 340 339 338 337 336 336 336 336 336 337 338 338 339 338 337 339 340 341 341 340 340 336 340
342 345 347 349 350 348 348 347 347 348 347 347 346 345 344 343 342 340 342 342 341 338 337 336 335 335 334 334 335 335 335 336 336 340 338 340 341 340 339 338 340 336 339
342 345 346 347 349 349 349 349 348 347 346 346 345 344 343 341 341 339 339 341 340 338 337 336 335 334 333 334 334 334 335 336 337 337 337 329 333 339 337 336 335 335 335
341 344 344 345 349 348 348 349 348 347 345 345 344 344 342 341 340 338 339 340 336 334 338 337 335 335 335 335 334 334 334 335 335 333 328 329 331 338 337 335 335 334 334
339 343 343 344 348 348 347 347 347 346 345 343 341 342 343 341 340 338 337 336 335 334 335 337 335 334 334 333 333 332 332 332 334 327 328 328 328 336 338 334 333 333 335
338 341 341 346 348 347 346 346 346 345 345 344 342 339 342 340 338 338 336 337 338 333 332 337 336 334 333 332 331 330 330 331 329 320 326 331 328 335 337 335 333 332 333
337 340 342 344 346 346 345 345 345 345 345 344 342 341 341 340 338 336 337 336 335 333 331 334 334 333 332 331 331 331 330 330 323 317 324 325 328 334 336 335 332 331 330
337 340 342 337 340 343 343 344 344 344 344 343 343 342 340 339 338 337 337 335 335 334 333 330 332 334 333 331 330 329 329 328 323 320 323 324 332 330 331 333 332 330 329
339 339 339 339 338 336 338 339 341 342 342 342 342 340 339 337 337 335 336 336 336 335 334 334 332 334 332 330 328 327 326 325 320 320 322 324 333 330 329 329 332 330 328
338 338 337 337 337 336 336 333 334 336 336 338 337 335 332 332 333 332 330 333 335 335 335 335 333 333 332 331 331 327 324 323 317 319 319 322 332 329 328 328 329 332 330
336 337 337 336 335 334 334 332 329 331 331 330 330 329 327 328 329 327 327 329 333 333 333 333 333 333 332 330 329 327 324 318 317 318 318 325 330 329 330 329 329 330 333
330 333 337 337 335 335 335 331 331 332 330 327 329 329 328 327 327 328 324 326 330 329 330 332 333 331 328 324 322 324 320 318 317 317 317 327 330 329 329 331 330 330 330
329 332 333 338 338 336 335 332 331 328 327 327 326 328 328 328 326 325 324 323 323 320 322 325 325 326 324 322 320 318 318 316 315 315 318 327 330 330 330 330 331 332 331
327 330 332 332 335 336 336 333 333 331 327 324 326 327 326 324 323 323 322 321 321 322 320 320 321 323 323 322 320 318 316 315 314 315 316 322 329 331 331 330 331 332 333
326 330 331 331 331 332 335 335 334 333 332 330 326 327 327 324 322 323 322 321 320 320 320 320 319 320 320 320 319 318 317 317 315 316 316 317 323 330 331 331 331 332 333
327 328 332 332 332 332 330 332 333 333 332 330 330 328 326 324 323 323 322 321 321 322 322 321 320 319 318 318 318 319 317 317 316 316 316 317 321 326 330 331 332 332 333
327 328 330 332 332 331 331 331 333 333 332 330 331 331 329 326 323 323 322 321 321 321 322 321 320 319 317 317 316 317 317 316 316 315 316 315 317 320 324 331 332 331 332
325 327 330 333 332 331 331 331 331 333 332 331 331 331 328 327 325 323 321 321 321 321 321 319 319 317 316 315 315 315 315 315 316 316 316 317 317 318 320 325 329 332 332
324 326 327 330 331 332 331 331 331 330 331 332 332 331 330 328 328 326 324 322 322 320 319 318 317 316 315 314 315 315 316 315 315 317 316 316 316 317 318 320 321 323 328
323 325 326 328 329 331 332 331 330 329 330 330 331 331 331 330 328 327 326 325 324 321 320 318 317 316 315 315 317 317 315 316 316 315 316 316 316 316 317 317 316 317 319
319 319 321 324 326 327 325 327 327 327 327 328 329 330 331 330 330 328 326 324 325 323 322 321 319 317 317 315 312 312 316 318 317 318 318 318 317 317 316 316 317 317 318
312 312 311 315 320 325 327 326 328 328 327 329 328 328 329 330 330 328 328 327 328 326 324 322 321 318 317 316 318 315 312 310 312 316 317 317 318 318 317 317 317 317 317
305 308 309 311 313 318 324 324 324 324 323 324 324 326 327 327 327 328 328 328 328 327 326 325 324 322 320 320 321 317 310 306 307 311 312 314 315 316 317 317 316 317 317
303 306 308 309 311 316 321 323 323 324 323 323 327 327 325 326 326 326 326 326 326 327 327 327 326 325 323 320 319 320 320 317 312 311 314 312 313 312 313 313 315 316 317
302 303 305 306 307 310 318 322 321 321 321 319 318 321 324 325 325 325 325 324 324 324 326 326 326 323 324 323 321 319 317 318 318 314 311 314 317 319 319 316 315 314 315
303 306 307 307 308 308 308 315 317 317 318 315 315 314 315 320 324 324 324 324 324 324 324 326 326 325 323 323 323 321 319 315 315 314 313 314 314 317 318 319 318 318 317
Wind_Speed
4 9 14 15 16 14 13 13 14 14 16 15 15 15 14 14 14 15 14 14 14 14 14 13 13 13 13 13 12 13 13 12 13 15 15 15 15 17 17 14 11 9 14
12 10 12 14 15 15 15 15 14 14 14 15 14 15 14 13 13 13 14 12 12 14 14 13 12 12 12 11 10 10 9 9 8 8 12 13 13 15 15 15 13 11 14
13 10 10 15 16 15 14 15 15 15 14 12 13 13 13 12 12 12 10 10 11 11 13 12 11 11 11 10 9 8 8 9 10 8 4 4 6 13 14 13 12 11 11
13 10 9 11 15 14 13 14 14 15 15 14 13 12 12 13 12 10 8 9 10 8 8 15 11 11 10 10 8 9 10 13 14 11 5 4 6 10 12 12 11 11 10
14 12 10 10 12 12 11 11 12 12 13 13 13 13 13 12 13 8 9 8 9 9 5 11 12 9 8 8 8 9 12 13 13 7 6 6 5 6 9 10 9 9 8
14 13 14 14 13 13 11 11 10 10 11 13 12 10 13 13 12 8 9 7 11 8 5 11 11 8 7 6 6 7 9 12 10 4 6 7 5 6 7 8 9 7 6
12 12 13 14 14 14 13 13 12 9 10 10 12 11 9 11 9 9 8 7 7 8 7 8 10 8 6 5 5 7 9 10 6 5 6 5 4 6 5 6 6 6 6
12 10 10 9 10 11 11 11 11 9 12 11 11 13 10 10 8 12 8 7 7 9 8 5 5 8 5 3 3 4 6 8 5 5 3 4 5 4 4 3 3 4 4
13 10 7 6 6 7 6 8 9 10 9 9 9 11 11 11 10 7 8 6 6 7 6 11 5 7 5 3 2 0 3 6 3 4 2 3 4 4 2 1 2 3 3
13 12 11 7 6 6 5 7 6 7 8 9 10 9 8 7 9 8 8 8 6 3 2 2 8 6 4 3 3 3 5 7 5 4 1 3 7 4 3 2 3 4 4
9 11 11 10 8 7 6 6 7 8 8 7 7 8 7 5 5 6 7 8 8 8 7 5 5 6 5 4 6 8 8 4 5 4 2 9 9 8 6 6 6 6 8
10 9 11 11 10 10 7 6 6 5 4 4 5 6 4 6 6 7 8 10 11 10 9 8 8 8 7 3 4 8 3 5 4 4 3 11 10 9 8 9 9 8 8
11 7 8 11 9 10 7 6 4 3 3 4 6 5 5 5 4 4 3 3 4 6 3 5 4 4 5 4 5 4 5 5 4 3 4 10 12 12 12 12 13 12 12
8 9 9 8 8 10 6 6 6 5 5 4 5 7 5 3 4 4 3 5 4 3 5 5 3 5 6 6 7 6 6 5 3 3 5 11 13 15 14 14 15 15 15
9 10 11 10 7 6 10 7 6 6 6 6 6 6 6 4 4 3 4 4 4 4 4 5 4 5 6 6 6 6 6 6 6 4 3 9 12 14 17 17 18 18 19
11 12 12 12 10 8 6 7 7 6 6 5 4 6 7 5 5 5 4 4 4 5 5 5 5 5 5 5 6 6 7 6 6 6 5 5 12 15 18 20 20 20 20
11 10 14 13 12 9 8 6 6 6 6 6 6 7 9 7 7 6 5 5 5 5 6 5 5 4 4 4 6 5 5 6 6 7 7 6 7 14 17 20 21 21 22
9 12 12 12 13 12 11 8 7 7 6 5 6 8 7 7 8 6 5 6 5 5 5 4 5 5 5 5 4 5 5 5 8 9 8 8 7 8 10 19 20 22 23
10 11 12 13 14 14 11 9 9 7 7 7 6 6 8 6 7 8 6 5 6 5 5 5 5 4 4 4 5 5 6 7 7 8 10 11 11 10 8 12 17 19 22
11 12 10 12 13 14 10 9 7 6 7 7 8 8 9 8 8 6 6 7 6 5 5 4 6 5 4 5 7 6 6 6 6 7 10 9 10 12 11 10 7 10 19
10 10 10 10 10 9 5 8 6 8 8 6 7 9 9 9 11 9 6 5 7 7 8 7 5 7 6 4 2 3 6 9 9 9 9 9 10 10 11 10 8 7 8
10 11 10 9 9 9 8 5 6 7 6 9 6 7 10 10 9 7 8 8 8 8 8 8 8 5 5 5 5 3 5 4 5 10 8 8 11 7 9 9 10 11 9
10 9 9 9 9 8 10 4 2 2 1 4 5 8 10 10 10 10 10 9 9 5 8 9 9 11 9 5 11 6 3 5 3 2 4 4 7 5 6 6 7 10 11
9 9 10 10 10 9 11 8 10 10 10 6 8 7 6 9 11 11 11 10 10 8 9 8 6 9 9 10 3 7 10 6 4 6 2 3 3 5 6 5 6 9 11
6 8 8 7 7 8 9 12 9 9 6 4 3 6 8 8 12 12 12 10 10 8 9 10 8 5 6 7 6 5 4 7 9 10 10 6 5 6 6 6 7 7 8
5 5 5 5 4 3 4 7 8 10 9 5 4 4 4 5 7 9 10 9 9 10 10 9 9 9 8 8 8 8 8 5 4 7 8 9 9 7 8 7 8 8 8
Wind_Direction
152 142 139 134 130 122 114 118 112 106 114 115 112 110 108 105 97 93 92 89 88 85 85 83 82 78 79 72 75 77 72 68 71 75 71 65 71 71 75 74 65 67 70
142 144 143 137 130 128 123 121 120 113 113 116 116 114 113 108 100 101 96 94 94 91 87 85 82 81 78 71 69 71 67 62 62 80 71 67 76 77 71 63 62 65 68
137 145 145 141 138 138 141 133 129 121 118 118 123 122 118 112 109 105 114 120 90 92 104 90 87 87 79 73 62 53 45 32 23 23 79 71 69 84 75 70 66 66 67
138 144 148 147 143 140 138 140 135 132 130 127 124 130 128 120 116 113 107 107 93 75 72 103 91 87 77 68 49 28 22 20 9 27 83 75 75 77 81 72 65 67 65
143 143 145 145 142 137 135 141 138 138 138 139 133 130 137 137 123 122 121 113 104 88 82 108 96 88 81 68 45 21 16 15 359 21 76 79 67 75 83 82 74 69 62
147 144 150 150 148 143 138 132 141 146 150 146 145 137 145 136 115 134 137 108 116 110 70 81 91 86 85 71 50 21 14 12 20 34 67 67 62 67 110 94 92 88 79
135 143 151 153 154 154 150 147 145 155 154 156 141 142 145 122 134 154 131 129 134 137 115 88 118 101 82 67 47 16 358 7 4 22 94 82 61 66 76 98 98 98 94
135 141 145 146 150 155 155 152 152 170 159 161 154 143 143 139 155 154 156 163 130 138 148 134 126 117 104 84 55 16 348 344 2 341 130 118 116 92 81 81 110 112 108
137 132 123 133 146 148 155 154 156 149 159 162 161 155 160 152 158 164 162 157 170 161 172 149 175 139 149 157 143 358 317 312 316 289 195 153 146 135 122 122 190 166 148
143 146 147 148 152 154 162 162 159 160 159 167 166 163 164 170 172 172 169 179 184 195 221 182 170 167 177 220 230 258 282 301 302 291 286 190 167 157 184 199 220 219 204
150 153 152 159 166 168 169 176 173 172 171 168 179 173 162 168 181 183 184 196 189 199 198 207 210 181 185 229 249 247 247 251 265 272 248 200 191 185 208 219 223 232 227
163 168 159 172 175 171 178 164 174 179 183 186 183 180 177 184 190 189 195 194 200 198 205 218 211 205 200 220 250 247 230 241 244 245 224 198 200 207 222 236 236 237 244
168 162 164 168 175 170 168 164 175 179 182 195 196 186 194 202 204 202 189 194 180 202 209 213 231 212 212 216 237 234 229 237 248 249 248 203 209 218 229 235 238 236 236
171 168 173 170 176 176 163 172 178 178 190 195 198 196 192 210 205 186 183 178 183 192 207 216 219 227 227 228 230 232 226 224 234 243 250 219 218 226 236 239 242 242 237
173 179 185 179 180 185 176 180 184 186 190 193 197 200 191 201 206 202 201 182 193 191 201 215 219 227 227 232 233 227 240 244 245 241 242 237 232 231 240 242 242 242 241
185 182 182 188 189 182 190 189 184 187 194 199 201 199 196 191 197 202 211 208 205 196 195 199 208 220 224 219 230 231 235 233 238 241 237 241 233 234 236 245 247 247 245
192 177 183 185 185 192 196 200 199 195 189 192 210 214 200 196 196 197 206 213 212 208 212 217 229 231 240 240 241 241 238 236 236 238 237 236 242 239 238 240 246 248 248
177 186 182 184 185 190 200 203 206 207 213 211 216 223 211 210 199 198 204 212 205 204 202 205 214 226 227 225 233 240 242 238 243 241 241 239 236 242 240 240 238 243 245
185 185 185 185 186 190 191 195 201 200 201 208 212 227 222 209 209 214 214 212 204 206 209 208 220 207 216 234 240 244 246 244 239 246 240 240 238 236 236 234 232 238 241
185 188 188 190 190 187 180 187 193 197 204 198 202 213 216 229 226 209 220 220 204 206 220 209 212 215 208 216 245 247 241 245 242 238 246 242 236 234 237 235 222 236 234
185 182 192 188 197 178 169 174 184 201 205 209 207 193 208 217 223 216 220 222 217 215 223 216 216 216 237 200 266 280 266 251 246 245 239 244 245 234 231 227 229 233 236
189 189 190 190 185 191 193 192 195 185 202 205 199 199 210 220 213 211 216 226 230 227 223 218 214 227 238 181 230 225 281 311 264 252 251 247 248 238 240 232 232 234 233
207 205 200 193 187 187 190 170 158 140 151 169 202 214 215 211 218 216 218 227 236 234 236 230 219 221 240 217 213 213 256 231 315 302 246 239 248 242 256 249 232 236 235
221 202 196 194 192 199 185 193 196 208 215 213 213 215 209 205 214 212 215 216 222 233 244 249 225 222 225 240 221 225 238 246 270 286 304 286 261 259 246 245 241 242 238
220 205 208 207 204 200 193 197 195 206 211 200 189 198 210 211 215 214 213 210 220 226 237 243 242 217 214 226 223 229 226 244 248 257 275 256 271 254 238 229 221 233 239
173 175 158 175 214 237 195 207 194 199 208 197 212 213 216 215 214 212 208 207 213 224 223 226 231 228 222 225 231 230 230 227 217 238 260 264 258 246 255 252 244 243 240